Wind_Speed
11 11 11 11 11 12 12 12 11 11 11 11 12 11 10 10 10 10 9 9 9 9 10 9 9 9 10 10 10 9 9 9 9 9 9 9 9 9 9 9 8 8 8
12 12 11 12 12 12 13 13 14 13 12 13 13 12 11 11 11 11 11 9 10 9 9 9 8 8 10 10 10 11 11 11 11 11 11 10 10 11 11 11 11 11 10
12 12 11 12 12 12 13 13 15 14 13 13 13 12 11 12 12 11 11 10 10 10 9 9 9 9 10 11 12 12 12 12 12 12 11 11 12 12 12 12 12 12 12
13 12 11 12 12 13 13 14 15 15 15 15 13 12 12 13 13 12 12 11 11 11 10 9 9 10 11 12 12 13 13 14 13 13 13 13 13 14 14 14 14 14 14
13 13 12 12 13 13 14 15 15 16 16 15 14 13 13 13 14 13 12 11 11 11 10 10 11 11 11 12 13 14 15 15 15 15 15 15 15 15 16 16 17 16 16
14 13 13 13 14 14 14 15 15 16 16 16 15 14 14 14 15 14 14 12 12 11 11 11 12 12 13 13 14 14 15 16 16 16 16 17 17 18 18 18 18 18 18
14 14 14 13 14 15 15 15 16 16 17 17 17 15 14 15 15 15 14 13 13 12 11 11 12 12 13 13 14 15 15 16 16 17 18 19 19 20 20 19 19 20 20
14 15 15 14 14 15 16 16 16 16 17 17 17 17 15 15 15 15 14 14 13 13 12 12 12 13 13 14 15 16 15 16 17 18 19 19 20 20 21 21 21 21 21
15 15 15 14 15 15 16 16 16 17 16 17 17 17 16 15 15 15 15 14 14 13 12 12 12 12 13 14 15 15 15 16 17 18 19 20 21 20 20 21 22 22 22
15 15 16 15 15 15 16 17 17 17 16 16 17 18 17 17 16 16 15 15 15 15 13 13 13 12 12 13 13 14 15 16 17 19 20 21 22 22 21 22 23 23 23
16 15 17 16 13 15 17 17 17 17 17 17 17 17 18 18 17 16 16 16 16 15 14 14 13 12 12 12 13 14 15 15 16 17 18 18 19 20 22 23 23 23 23
16 16 16 16 16 16 16 16 17 17 17 17 17 18 18 18 18 17 17 16 15 15 14 14 14 14 13 13 14 14 15 15 16 16 17 18 19 20 21 21 22 23 23
17 16 17 16 16 16 16 17 17 17 17 18 19 19 19 18 18 17 16 16 15 14 14 14 14 15 15 15 15 15 15 16 16 16 17 17 18 19 20 21 21 22 23
17 16 17 17 17 17 17 17 18 18 18 19 19 19 18 18 17 17 16 16 16 15 14 14 14 15 15 15 15 15 15 16 16 17 17 17 18 19 20 20 20 21 22
18 17 17 16 17 17 17 18 18 18 18 18 18 18 18 18 17 16 16 16 15 15 15 15 15 15 15 15 15 15 15 15 16 16 17 17 17 18 19 19 20 21 22
18 18 17 17 17 17 17 18 18 18 18 18 18 18 18 18 17 16 16 15 16 16 15 15 15 15 15 15 16 16 16 17 17 17 17 18 17 18 19 19 20 21 22
18 18 18 17 17 18 18 18 18 18 19 19 19 18 18 18 17 16 16 16 16 16 15 15 15 15 16 16 16 16 16 17 17 17 17 18 19 19 20 21 22 22 23
19 18 19 18 18 18 18 19 20 20 20 19 18 18 18 18 17 17 16 16 16 15 16 16 16 16 17 16 16 16 17 18 18 18 18 18 19 19 21 22 22 23 24
20 19 19 19 19 20 20 20 20 20 19 19 19 19 19 18 18 17 17 16 16 16 16 17 16 16 16 17 17 18 18 19 19 19 19 20 20 21 22 22 23 24 24
20 20 20 20 20 20 21 21 20 20 19 19 19 19 19 18 18 17 17 17 17 17 17 17 17 17 17 18 19 19 19 20 19 20 21 22 22 23 23 24 25 25 26
21 22 22 22 21 21 21 21 21 20 20 20 20 20 20 18 18 18 18 18 18 18 18 18 18 18 18 19 20 20 20 19 19 21 22 22 23 24 25 25 26 27 27
23 23 23 23 22 22 22 22 22 21 21 20 20 20 20 19 18 18 18 18 18 18 18 18 19 18 19 20 20 20 20 20 21 22 23 24 25 26 26 27 27 28 28
24 25 25 24 23 23 24 24 23 23 22 20 21 21 20 19 19 19 19 19 19 19 19 19 19 20 20 21 21 21 21 22 23 24 25 26 27 27 28 28 28 29 29
26 25 25 25 25 25 25 24 24 23 22 21 21 21 20 20 19 19 20 20 20 20 20 20 21 21 21 22 22 23 23 24 25 25 26 27 28 28 28 28 29 30 30
26 26 26 26 25 25 24 24 23 23 21 21 22 21 21 20 20 20 20 21 22 22 22 22 22 22 22 23 23 24 25 26 26 27 27 28 28 29 29 29 30 31 32
28 27 27 26 26 25 25 24 23 22 22 22 22 22 22 21 21 21 22 22 23 23 24 24 23 23 23 24 25 25 26 26 27 27 28 29 29 30 30 30 31 32 33
Wind_Direction
337 341 344 346 346 347 345 347 348 343 341 341 338 335 335 330 324 320 317 313 304 291 279 268 266 263 261 262 260 256 257 257 258 262 266 265 265 268 269 268 271 273 273
332 340 340 341 342 344 345 346 345 341 339 335 333 330 329 326 324 319 318 315 308 299 282 277 270 266 261 258 258 255 257 260 260 261 266 268 268 270 271 270 273 276 277
325 331 336 336 338 336 337 339 340 338 335 336 331 326 326 325 323 321 316 312 304 303 289 280 274 271 263 259 260 257 259 262 261 261 262 265 268 270 269 270 272 275 276
320 322 327 330 332 332 332 334 334 335 335 333 330 325 325 324 322 320 314 310 306 303 297 287 282 276 266 263 262 262 263 264 266 266 266 266 268 268 270 271 272 273 273
307 313 320 324 327 329 330 328 328 330 330 331 331 328 324 323 323 321 318 311 307 304 299 287 280 278 277 267 265 266 266 265 265 266 266 268 269 270 272 272 273 274 274
297 303 312 319 323 324 326 327 326 326 326 326 327 324 322 321 322 321 321 316 311 307 304 295 286 283 281 274 269 270 271 267 267 266 266 269 270 272 273 275 276 277 277
300 306 310 316 320 322 324 325 326 323 324 324 324 322 318 319 322 322 321 318 315 309 304 297 289 286 281 275 272 272 271 269 269 267 268 271 271 273 274 275 276 278 280
297 300 305 308 313 317 319 322 323 322 322 323 324 324 321 321 322 321 324 322 320 314 304 300 292 287 282 278 276 275 273 271 268 268 270 272 272 274 275 275 276 278 281
293 296 302 305 308 313 317 321 322 322 321 322 323 325 326 323 321 321 320 322 321 319 311 301 294 291 288 286 281 278 275 274 272 272 272 272 273 274 275 277 278 278 279
291 294 297 300 303 312 316 318 320 321 321 320 320 324 325 323 321 319 317 319 320 317 313 308 301 295 293 291 289 285 282 279 277 277 277 277 276 274 275 276 278 279 279
286 289 291 297 304 309 313 315 317 319 319 319 319 321 323 322 320 319 317 316 317 316 312 307 303 297 295 293 292 292 290 287 285 284 285 283 281 280 279 279 279 280 281
285 288 289 294 299 304 310 312 313 315 316 317 319 319 320 320 321 320 319 316 315 315 314 311 305 300 297 296 296 295 293 292 291 289 291 291 289 287 286 283 282 283 284
284 285 288 294 302 304 305 307 311 313 314 316 317 317 317 317 318 319 320 319 317 313 313 312 310 307 303 300 299 299 296 293 293 292 290 290 290 290 289 287 287 287 286
282 281 287 292 295 299 301 304 308 311 312 314 315 316 316 316 316 318 319 318 316 313 311 310 311 310 309 310 309 306 302 300 297 296 295 294 294 293 293 291 291 290 289
280 281 286 290 293 297 300 303 307 310 310 313 315 317 318 318 316 315 315 314 314 313 310 308 309 311 311 312 312 313 312 307 304 302 301 299 299 298 297 295 295 294 294
279 280 284 289 292 295 299 304 306 308 309 313 315 316 317 318 317 314 313 314 313 313 310 308 308 310 312 311 312 315 314 313 308 304 301 301 301 300 299 298 297 295 295
275 278 283 289 292 295 299 304 307 308 310 311 312 314 315 316 316 314 313 313 314 313 310 310 309 310 312 311 314 316 314 314 312 308 305 303 302 302 301 299 297 296 296
273 276 281 287 291 294 297 302 304 305 307 309 311 313 314 313 314 314 313 313 315 316 314 311 310 310 311 312 313 313 313 314 314 312 309 306 304 303 303 300 299 298 298
271 275 279 284 288 291 295 299 303 305 306 307 310 311 312 311 311 311 312 314 314 313 313 313 314 315 315 315 316 316 315 315 315 315 316 314 311 310 309 307 305 304 303
269 273 277 281 286 289 293 298 301 303 304 306 308 309 310 311 310 310 311 313 313 314 315 314 314 315 315 315 315 315 315 315 315 316 316 316 315 313 311 311 310 308 307
271 273 275 280 283 286 290 295 297 299 300 302 305 306 307 308 308 310 310 311 311 312 313 313 312 312 313 314 314 316 316 316 315 315 315 315 315 313 312 311 310 310 309
269 271 273 276 280 283 288 291 293 296 296 298 300 303 303 303 304 306 309 310 309 310 311 311 311 311 313 315 317 318 318 317 316 315 314 314 314 313 311 309 308 308 309
267 268 272 274 278 282 286 288 290 292 292 293 297 299 300 302 302 304 307 308 307 307 309 309 310 311 312 313 315 316 316 315 314 313 312 313 313 312 309 308 308 309 308
265 267 270 273 276 281 284 286 288 289 288 290 293 296 298 300 300 301 304 306 307 307 307 308 309 310 310 311 312 313 313 312 312 311 312 312 311 311 310 309 309 309 309
262 266 269 271 275 279 281 284 287 286 286 287 290 293 297 297 297 299 301 304 306 305 305 306 307 307 307 307 308 310 310 310 310 310 311 311 311 310 310 309 309 309 309
261 264 267 270 273 276 278 280 284 286 286 287 289 291 293 295 294 296 299 302 304 305 305 305 305 306 306 305 306 308 309 309 310 310 311 311 310 310 310 310 309 309 309
Height
5920 5918 5917 5916 5915 5914 5912 5911 5910 5909 5908 5907 5906 5905 5903 5902 5901 5900 5899 5899 5898 5897 5896 5897 5897 5898 5899 5900 5900 5900 5901 5902 5902 5903 5904 5904 5905 5905 5905 5905 5905 5905 5905
5919 5918 5917 5916 5915 5914 5913 5911 5910 5909 5907 5906 5905 5903 5902 5901 5900 5899 5898 5897 5896 5895 5894 5895 5895 5896 5897 5897 5898 5899 5899 5900 5900 5901 5901 5902 5903 5903 5903 5903 5903 5903 5903
5919 5918 5916 5915 5914 5913 5912 5911 5909 5908 5906 5905 5903 5902 5901 5900 5899 5897 5896 5895 5894 5894 5893 5893 5893 5894 5894 5895 5896 5896 5897 5897 5898 5898 5899 5899 5900 5900 5901 5900 5900 5900 5900
5918 5917 5916 5915 5913 5912 5911 5910 5909 5907 5905 5903 5902 5900 5899 5898 5897 5896 5895 5894 5893 5892 5891 5891 5892 5892 5892 5892 5893 5894 5894 5895 5895 5896 5896 5897 5897 5897 5897 5897 5897 5897 5897
5917 5915 5915 5914 5913 5911 5910 5909 5907 5906 5904 5902 5900 5899 5898 5896 5895 5894 5892 5892 5891 5890 5889 5889 5889 5889 5889 5890 5890 5891 5891 5891 5892 5893 5893 5893 5893 5893 5894 5894 5893 5893 5893
5914 5912 5912 5911 5911 5910 5909 5907 5906 5904 5903 5901 5899 5897 5896 5894 5893 5892 5890 5889 5888 5887 5887 5886 5886 5886 5887 5887 5887 5887 5888 5888 5889 5889 5889 5890 5890 5890 5890 5890 5889 5889 5889
5913 5912 5911 5910 5910 5908 5907 5906 5905 5903 5901 5899 5897 5895 5894 5893 5891 5890 5888 5887 5886 5885 5884 5884 5884 5883 5883 5883 5884 5884 5884 5884 5885 5885 5885 5885 5885 5885 5885 5886 5885 5885 5885
5913 5911 5910 5909 5908 5907 5906 5905 5903 5901 5899 5897 5896 5894 5892 5891 5890 5888 5887 5885 5883 5882 5882 5881 5881 5880 5880 5880 5880 5880 5880 5880 5881 5880 5881 5881 5880 5880 5881 5881 5880 5880 5880
5911 5910 5908 5908 5906 5905 5904 5903 5901 5900 5898 5896 5894 5892 5891 5889 5888 5886 5885 5883 5882 5880 5879 5878 5878 5877 5877 5877 5876 5876 5876 5876 5876 5876 5876 5876 5876 5875 5875 5875 5875 5875 5875
5909 5908 5906 5905 5903 5903 5902 5901 5899 5898 5896 5895 5893 5891 5889 5888 5886 5884 5883 5882 5880 5878 5877 5876 5875 5874 5874 5873 5873 5873 5873 5872 5872 5871 5871 5871 5871 5870 5870 5870 5870 5869 5869
5906 5905 5904 5902 5901 5901 5900 5899 5898 5896 5895 5893 5891 5889 5887 5886 5884 5882 5881 5879 5878 5876 5875 5874 5873 5872 5871 5870 5870 5870 5869 5868 5868 5867 5866 5866 5865 5865 5865 5864 5864 5863 5863
5903 5902 5901 5900 5899 5898 5898 5897 5895 5894 5892 5891 5889 5887 5885 5883 5881 5880 5878 5877 5875 5874 5872 5871 5870 5869 5868 5868 5867 5866 5865 5865 5864 5863 5862 5861 5860 5860 5859 5859 5858 5858 5857
5900 5900 5898 5897 5896 5896 5895 5894 5893 5892 5890 5888 5886 5885 5883 5881 5879 5877 5876 5874 5873 5871 5870 5869 5868 5867 5866 5864 5863 5862 5862 5861 5860 5859 5858 5857 5856 5855 5855 5854 5853 5852 5851
5897 5897 5896 5895 5894 5894 5893 5892 5891 5889 5887 5886 5884 5882 5880 5878 5876 5874 5873 5872 5870 5869 5868 5867 5865 5864 5863 5862 5860 5859 5858 5857 5856 5855 5854 5852 5852 5851 5850 5849 5848 5847 5845
5894 5893 5893 5893 5892 5891 5890 5889 5888 5886 5884 5883 5881 5879 5877 5875 5873 5871 5870 5869 5868 5866 5865 5864 5863 5861 5860 5859 5858 5856 5855 5854 5852 5851 5849 5848 5847 5846 5845 5844 5842 5841 5840
5890 5890 5890 5890 5889 5888 5887 5886 5885 5883 5881 5880 5878 5876 5874 5872 5870 5869 5868 5866 5865 5864 5862 5861 5860 5859 5858 5856 5855 5853 5852 5850 5849 5847 5845 5844 5843 5842 5840 5839 5837 5836 5835
5887 5887 5887 5886 5886 5885 5884 5883 5882 5880 5878 5877 5875 5874 5872 5870 5868 5866 5865 5864 5862 5860 5859 5858 5857 5856 5854 5853 5852 5850 5849 5847 5845 5843 5842 5840 5839 5837 5836 5834 5832 5830 5828
5883 5884 5883 5883 5883 5882 5881 5880 5879 5877 5875 5874 5873 5871 5869 5868 5866 5864 5862 5861 5859 5857 5856 5855 5854 5853 5851 5850 5849 5847 5845 5843 5841 5840 5838 5836 5834 5832 5830 5829 5827 5824 5822
5879 5880 5880 5879 5879 5879 5878 5877 5875 5874 5872 5871 5869 5868 5866 5864 5863 5861 5860 5858 5857 5855 5853 5852 5851 5850 5848 5847 5845 5843 5842 5840 5838 5836 5834 5831 5830 5827 5825 5823 5821 5818 5816
5874 5875 5876 5875 5875 5875 5874 5873 5872 5870 5869 5867 5866 5864 5863 5861 5860 5859 5857 5856 5854 5852 5851 5850 5848 5847 5845 5843 5842 5840 5838 5836 5834 5832 5829 5827 5825 5822 5820 5817 5815 5812 5809
5870 5871 5871 5871 5871 5870 5870 5869 5868 5866 5865 5864 5862 5861 5859 5858 5857 5855 5854 5853 5851 5850 5848 5847 5845 5843 5842 5840 5838 5836 5834 5831 5829 5827 5825 5822 5820 5817 5814 5811 5809 5806 5803
5866 5866 5866 5866 5866 5866 5865 5864 5863 5862 5861 5859 5858 5857 5856 5854 5853 5852 5850 5849 5847 5846 5845 5843 5841 5839 5838 5836 5833 5831 5829 5827 5825 5823 5820 5817 5814 5811 5809 5806 5802 5799 5796
5861 5861 5861 5861 5861 5860 5860 5859 5858 5857 5856 5855 5854 5853 5852 5850 5849 5848 5846 5845 5843 5842 5841 5839 5837 5835 5833 5831 5829 5827 5825 5822 5820 5817 5815 5812 5809 5806 5802 5799 5796 5793 5789
5855 5855 5855 5855 5855 5855 5855 5854 5853 5852 5851 5850 5849 5848 5847 5846 5845 5843 5842 5841 5839 5837 5836 5834 5832 5830 5828 5826 5824 5822 5819 5817 5814 5812 5809 5806 5803 5799 5796 5792 5789 5786 5782
5849 5849 5850 5850 5850 5850 5849 5848 5848 5847 5846 5845 5845 5844 5843 5842 5840 5839 5838 5836 5834 5833 5831 5829 5827 5825 5823 5821 5819 5817 5814 5811 5808 5805 5803 5799 5796 5793 5789 5786 5782 5778 5775
5843 5843 5843 5844 5844 5844 5843 5843 5843 5842 5841 5841 5840 5839 5838 5837 5836 5834 5833 5831 5829 5827 5826 5824 5822 5820 5818 5816 5813 5811 5808 5805 5802 5799 5796 5793 5789 5786 5782 5779 5775 5771 5767